Fecha, hora, temperatura, viento dirección y velocidad, humedad y presión.

  • 17-07-2019 00:00:00 | 11.40°C | Calma |0.00 km/h | 90.00% | 0.00 hPa
  • 16-07-2019 23:00:00 | 11.60°C | Calma |0.00 km/h | 90.00% | 0.00 hPa
  • 16-07-2019 22:00:00 | 11.70°C | Noroeste |3.00 km/h | 90.00% | 0.00 hPa
  • 16-07-2019 21:00:00 | 12.00°C | Noroeste |3.00 km/h | 90.00% | 0.00 hPa
  • 16-07-2019 20:00:00 | 12.10°C | Noroeste |4.00 km/h | 90.00% | 0.00 hPa
  • 16-07-2019 19:00:00 | 12.20°C | Noroeste |4.00 km/h | 90.00% | 0.00 hPa
  • 16-07-2019 18:00:00 | 12.70°C | Noroeste |3.00 km/h | 88.00% | 0.00 hPa
  • 16-07-2019 17:00:00 | 12.60°C | Noroeste |3.00 km/h | 87.00% | 0.00 hPa
  • 16-07-2019 16:00:00 | 12.70°C | Noroeste |5.00 km/h | 86.00% | 0.00 hPa
  • 16-07-2019 15:00:00 | 13.10°C | Norte |3.00 km/h | 85.00% | 0.00 hPa
  • 16-07-2019 14:00:00 | 13.00°C | Noroeste |3.00 km/h | 86.00% | 0.00 hPa
  • 16-07-2019 13:00:00 | 12.30°C | Noroeste |3.00 km/h | 90.00% | 0.00 hPa
  • 16-07-2019 12:00:00 | 11.80°C | Noroeste |4.00 km/h | 90.00% | 0.00 hPa
  • 16-07-2019 11:00:00 | 11.60°C | Noroeste |4.00 km/h | 90.00% | 0.00 hPa
  • 16-07-2019 10:00:00 | 11.50°C | Noroeste |3.00 km/h | 90.00% | 0.00 hPa
  • 16-07-2019 09:00:00 | 11.40°C | Calma |0.00 km/h | 90.00% | 0.00 hPa
  • 16-07-2019 08:00:00 | 10.70°C | Sudoeste |2.00 km/h | 90.00% | 0.00 hPa
  • 16-07-2019 07:00:00 | 10.60°C | Sudeste |2.00 km/h | 90.00% | 0.00 hPa
  • 16-07-2019 06:00:00 | 10.90°C | Sur |4.00 km/h | 90.00% | 0.00 hPa
  • 16-07-2019 05:00:00 | 11.20°C | Calma |0.00 km/h | 90.00% | 0.00 hPa
  • 16-07-2019 04:00:00 | 11.60°C | Calma |0.00 km/h | 90.00% | 0.00 hPa
  • 16-07-2019 02:00:00 | 12.30°C | Oeste |2.00 km/h | 90.00% | 0.00 hPa
  • 16-07-2019 01:00:00 | 12.30°C | Noroeste |3.00 km/h | 90.00% | 0.00 hPa
  • 16-07-2019 00:00:00 | 12.60°C | Noroeste |6.00 km/h | 90.00% | 0.00 hPa
    • diseño web asturias Información sobre el estado de las mareas, altura de la marejada, temperatura del agua y otros datos de Gijón en Asturias.

      Surf Gijón